QPF
0.00 0.00 0.00 0.00 0.00 0.02 0.02 0.00 0.00 0.00 0.00 0.00 0.00 0.00 0.00 0.00 0.01 0.03 0.00 0.00 0.00 0.00 0.00 0.00 0.00 0.00 0.00 0.00 0.00 0.00 0.00 0.00 0.00 0.00 0.00 0.00 0.00 0.00 0.00 0.00 0.00 0.00 0.00 0.00 0.00 0.00 0.00 0.00 0.00
0.00 0.00 0.00 0.00 0.01 0.05 0.01 0.00 0.00 0.00 0.00 0.00 0.00 0.00 0.00 0.00 0.00 0.00 0.00 0.00 0.00 0.00 0.00 0.00 0.00 0.00 0.00 0.00 0.00 0.00 0.00 0.00 0.00 0.00 0.00 0.00 0.00 0.00 0.00 0.00 0.00 0.00 0.00 0.00 0.00 0.00 0.00 0.00 0.00
0.00 0.00 0.00 0.00 0.01 0.05 0.01 0.00 0.00 0.00 0.00 0.00 0.00 0.00 0.00 0.00 0.00 0.00 0.00 0.00 0.00 0.00 0.00 0.00 0.00 0.00 0.00 0.00 0.00 0.00 0.00 0.00 0.00 0.00 0.00 0.00 0.00 0.01 0.01 0.01 0.00 0.00 0.00 0.00 0.00 0.00 0.00 0.00 0.00
0.00 0.00 0.00 0.00 0.01 0.01 0.00 0.00 0.00 0.00 0.00 0.00 0.00 0.00 0.00 0.00 0.00 0.00 0.00 0.00 0.00 0.00 0.00 0.00 0.00 0.00 0.00 0.00 0.00 0.00 0.00 0.00 0.00 0.00 0.00 0.00 0.01 0.01 0.01 0.01 0.00 0.00 0.00 0.00 0.00 0.00 0.00 0.00 0.00
0.00 0.00 0.00 0.01 0.01 0.00 0.00 0.00 0.00 0.00 0.00 0.00 0.00 0.00 0.00 0.00 0.00 0.00 0.00 0.00 0.00 0.00 0.00 0.00 0.00 0.00 0.00 0.00 0.00 0.00 0.00 0.00 0.00 0.00 0.00 0.00 0.00 0.00 0.00 0.00 0.00 0.00 0.00 0.00 0.00 0.00 0.00 0.00 0.00
0.00 0.00 0.00 0.01 0.01 0.00 0.00 0.00 0.00 0.00 0.00 0.00 0.00 0.00 0.00 0.00 0.00 0.00 0.00 0.00 0.00 0.00 0.00 0.00 0.00 0.00 0.00 0.00 0.00 0.00 0.00 0.00 0.00 0.00 0.00 0.00 0.00 0.00 0.00 0.00 0.00 0.00 0.00 0.00 0.00 0.00 0.00 0.00 0.00
0.00 0.00 0.00 0.00 0.00 0.00 0.00 0.00 0.00 0.00 0.00 0.00 0.00 0.00 0.00 0.00 0.00 0.00 0.00 0.00 0.00 0.00 0.00 0.00 0.00 0.00 0.00 0.00 0.00 0.00 0.00 0.00 0.00 0.00 0.00 0.00 0.00 0.00 0.00 0.00 0.00 0.00 0.00 0.00 0.00 0.00 0.00 0.00 0.00
0.00 0.00 0.00 0.00 0.00 0.00 0.00 0.00 0.00 0.00 0.00 0.00 0.00 0.00 0.00 0.00 0.00 0.00 0.00 0.00 0.00 0.00 0.00 0.00 0.00 0.00 0.00 0.00 0.00 0.00 0.00 0.00 0.00 0.00 0.00 0.00 0.00 0.00 0.00 0.00 0.00 0.00 0.00 0.00 0.00 0.00 0.00 0.00 0.00
0.00 0.00 0.00 0.00 0.00 0.00 0.00 0.00 0.00 0.00 0.00 0.00 0.00 0.00 0.00 0.00 0.00 0.00 0.00 0.00 0.00 0.00 0.00 0.00 0.00 0.00 0.00 0.00 0.00 0.00 0.00 0.00 0.00 0.00 0.00 0.00 0.00 0.01 0.02 0.00 0.01 0.01 0.01 0.00 0.00 0.00 0.01 0.00 0.00
0.00 0.00 0.00 0.00 0.00 0.00 0.00 0.00 0.00 0.00 0.00 0.00 0.00 0.00 0.00 0.00 0.00 0.00 0.00 0.00 0.00 0.00 0.00 0.00 0.00 0.00 0.00 0.00 0.00 0.00 0.00 0.00 0.00 0.01 0.03 0.03 0.07 0.07 0.02 0.01 0.02 0.01 0.01 0.00 0.00 0.01 0.01 0.01 0.02
0.00 0.00 0.00 0.00 0.00 0.00 0.00 0.00 0.00 0.00 0.00 0.00 0.01 0.02 0.00 0.00 0.00 0.00 0.00 0.00 0.00 0.00 0.00 0.00 0.00 0.00 0.00 0.00 0.00 0.00 0.00 0.01 0.01 0.01 0.04 0.08 0.08 0.03 0.00 0.00 0.01 0.01 0.01 0.01 0.04 0.06 0.03 0.05 0.08
0.00 0.00 0.00 0.00 0.00 0.00 0.00 0.00 0.00 0.00 0.00 0.00 0.00 0.01 0.00 0.00 0.00 0.00 0.00 0.00 0.00 0.00 0.00 0.00 0.00 0.00 0.00 0.00 0.00 0.00 0.00 0.00 0.00 0.02 0.01 0.04 0.05 0.02 0.01 0.00 0.01 0.03 0.03 0.05 0.06 0.11 0.07 0.06 0.04
0.00 0.00 0.00 0.00 0.00 0.00 0.00 0.00 0.00 0.00 0.00 0.00 0.00 0.00 0.00 0.00 0.00 0.00 0.00 0.00 0.00 0.00 0.00 0.00 0.00 0.00 0.00 0.00 0.01 0.00 0.00 0.00 0.00 0.00 0.00 0.01 0.02 0.01 0.01 0.00 0.00 0.00 0.01 0.03 0.05 0.02 0.05 0.06 0.03
0.00 0.00 0.00 0.00 0.00 0.00 0.00 0.00 0.00 0.00 0.00 0.00 0.00 0.00 0.00 0.00 0.00 0.00 0.00 0.00 0.00 0.00 0.00 0.00 0.00 0.00 0.00 0.00 0.00 0.00 0.00 0.00 0.00 0.00 0.00 0.00 0.00 0.00 0.01 0.01 0.02 0.01 0.01 0.01 0.02 0.02 0.06 0.06 0.05
0.00 0.00 0.00 0.00 0.00 0.00 0.00 0.00 0.00 0.00 0.00 0.00 0.00 0.00 0.00 0.00 0.00 0.00 0.00 0.00 0.00 0.00 0.00 0.00 0.00 0.00 0.00 0.00 0.00 0.00 0.00 0.00 0.00 0.00 0.00 0.00 0.00 0.00 0.01 0.01 0.03 0.04 0.04 0.06 0.05 0.06 0.09 0.08 0.10
0.00 0.00 0.00 0.00 0.00 0.00 0.00 0.00 0.00 0.00 0.00 0.00 0.00 0.00 0.00 0.00 0.00 0.00 0.00 0.00 0.00 0.00 0.00 0.00 0.00 0.00 0.00 0.00 0.00 0.00 0.00 0.00 0.00 0.00 0.00 0.00 0.00 0.01 0.06 0.06 0.05 0.10 0.09 0.11 0.14 0.14 0.15 0.17 0.17
0.00 0.00 0.00 0.00 0.00 0.00 0.00 0.00 0.00 0.00 0.00 0.00 0.00 0.00 0.00 0.00 0.00 0.00 0.00 0.00 0.00 0.00 0.00 0.00 0.00 0.00 0.01 0.01 0.01 0.00 0.00 0.00 0.00 0.00 0.00 0.00 0.01 0.04 0.09 0.09 0.12 0.14 0.14 0.16 0.14 0.22 0.23 0.23 0.20
0.00 0.00 0.00 0.00 0.00 0.00 0.00 0.00 0.00 0.00 0.00 0.00 0.00 0.00 0.00 0.00 0.00 0.00 0.00 0.00 0.00 0.00 0.00 0.00 0.01 0.03 0.07 0.10 0.07 0.04 0.02 0.01 0.00 0.00 0.01 0.02 0.05 0.07 0.12 0.13 0.14 0.15 0.16 0.17 0.19 0.23 0.24 0.22 0.19
0.00 0.00 0.00 0.00 0.00 0.00 0.00 0.00 0.00 0.00 0.00 0.00 0.00 0.00 0.00 0.00 0.00 0.00 0.01 0.00 0.00 0.00 0.00 0.02 0.07 0.15 0.18 0.18 0.15 0.14 0.13 0.11 0.06 0.03 0.03 0.03 0.05 0.09 0.14 0.14 0.17 0.18 0.18 0.18 0.20 0.20 0.20 0.19 0.20
0.00 0.00 0.00 0.00 0.00 0.00 0.00 0.00 0.00 0.00 0.00 0.00 0.00 0.00 0.00 0.00 0.00 0.01 0.01 0.00 0.00 0.01 0.01 0.05 0.14 0.22 0.22 0.24 0.25 0.28 0.32 0.21 0.12 0.10 0.09 0.07 0.09 0.11 0.14 0.17 0.20 0.23 0.23 0.22 0.21 0.21 0.21 0.18 0.16
0.00 0.00 0.00 0.00 0.00 0.00 0.00 0.00 0.00 0.00 0.00 0.00 0.00 0.00 0.00 0.00 0.00 0.01 0.02 0.03 0.02 0.02 0.02 0.06 0.12 0.18 0.22 0.29 0.32 0.31 0.33 0.23 0.20 0.20 0.20 0.17 0.16 0.16 0.18 0.21 0.23 0.25 0.25 0.24 0.23 0.24 0.24 0.20 0.15
0.00 0.00 0.00 0.00 0.00 0.00 0.00 0.00 0.00 0.00 0.00 0.00 0.00 0.00 0.00 0.00 0.00 0.00 0.00 0.01 0.01 0.01 0.01 0.04 0.06 0.09 0.13 0.20 0.25 0.28 0.28 0.24 0.28 0.36 0.34 0.28 0.24 0.20 0.19 0.21 0.24 0.26 0.24 0.21 0.19 0.20 0.22 0.22 0.20
0.00 0.00 0.00 0.00 0.00 0.00 0.00 0.00 0.00 0.00 0.00 0.00 0.01 0.01 0.01 0.01 0.00 0.00 0.00 0.00 0.00 0.00 0.00 0.01 0.02 0.03 0.05 0.09 0.14 0.19 0.22 0.25 0.27 0.26 0.24 0.19 0.14 0.10 0.11 0.16 0.21 0.23 0.22 0.19 0.17 0.18 0.19 0.22 0.21
0.00 0.00 0.00 0.00 0.00 0.00 0.00 0.00 0.00 0.00 0.00 0.00 0.01 0.01 0.01 0.00 0.00 0.00 0.00 0.00 0.00 0.00 0.00 0.00 0.00 0.00 0.02 0.03 0.06 0.10 0.12 0.15 0.17 0.14 0.13 0.10 0.08 0.06 0.06 0.08 0.12 0.16 0.17 0.18 0.18 0.19 0.19 0.19 0.20
0.00 0.00 0.00 0.00 0.00 0.01 0.01 0.01 0.00 0.00 0.00 0.00 0.00 0.00 0.00 0.00 0.00 0.00 0.00 0.00 0.00 0.00 0.00 0.00 0.00 0.00 0.01 0.01 0.03 0.05 0.07 0.10 0.11 0.12 0.12 0.11 0.10 0.09 0.08 0.08 0.11 0.13 0.14 0.16 0.17 0.18 0.18 0.20 0.20
0.00 0.00 0.00 0.00 0.00 0.00 0.00 0.00 0.00 0.00 0.00 0.00 0.00 0.00 0.00 0.00 0.00 0.00 0.00 0.00 0.00 0.00 0.00 0.00 0.00 0.00 0.00 0.00 0.01 0.03 0.05 0.08 0.09 0.11 0.12 0.13 0.13 0.16 0.17 0.15 0.14 0.15 0.19 0.18 0.18 0.19 0.20 0.20 0.20
0.00 0.00 0.00 0.00 0.00 0.00 0.00 0.00 0.00 0.00 0.00 0.00 0.00 0.00 0.00 0.00 0.00 0.00 0.00 0.00 0.00 0.00 0.00 0.00 0.00 0.00 0.00 0.01 0.01 0.02 0.04 0.07 0.09 0.11 0.13 0.15 0.16 0.17 0.19 0.18 0.16 0.18 0.19 0.18 0.16 0.16 0.18 0.21 0.22
0.00 0.00 0.00 0.00 0.00 0.00 0.00 0.00 0.00 0.00 0.00 0.00 0.00 0.00 0.00 0.00 0.00 0.00 0.00 0.00 0.00 0.00 0.00 0.00 0.00 0.00 0.00 0.01 0.01 0.02 0.04 0.07 0.10 0.11 0.13 0.14 0.16 0.17 0.19 0.19 0.19 0.17 0.13 0.11 0.10 0.13 0.15 0.18 0.20
0.00 0.00 0.00 0.00 0.00 0.00 0.00 0.00 0.00 0.00 0.00 0.00 0.00 0.00 0.00 0.00 0.00 0.00 0.00 0.00 0.00 0.00 0.00 0.00 0.00 0.00 0.01 0.01 0.02 0.03 0.05 0.09 0.12 0.13 0.13 0.14 0.17 0.19 0.20 0.20 0.18 0.14 0.11 0.09 0.11 0.15 0.18 0.19 0.20
0.00 0.00 0.00 0.00 0.00 0.00 0.00 0.00 0.00 0.00 0.00 0.00 0.00 0.00 0.00 0.00 0.00 0.00 0.00 0.00 0.00 0.00 0.00 0.00 0.00 0.00 0.01 0.01 0.02 0.04 0.07 0.12 0.16 0.16 0.16 0.17 0.18 0.20 0.18 0.15 0.14 0.12 0.11 0.13 0.17 0.18 0.20 0.19 0.15
MSLP
1007.61 1008.23 1008.90 1009.46 1009.76 1009.72 1009.34 1008.69 1007.90 1007.15 1006.58 1006.28 1006.29 1006.55 1006.96 1007.40 1007.77 1008.02 1008.15 1008.23 1008.34 1008.58 1009.00 1009.62 1010.37 1011.18 1011.92 1012.51 1012.91 1013.10 1013.16 1013.16 1013.21 1013.35 1013.64 1014.03 1014.49 1014.94 1015.31 1015.55 1015.65 1015.65 1015.59 1015.52 1015.49 1015.52 1015.62 1015.74 1015.87
1007.70 1008.37 1009.03 1009.53 1009.74 1009.60 1009.13 1008.41 1007.59 1006.83 1006.27 1005.98 1005.98 1006.21 1006.58 1006.97 1007.29 1007.52 1007.66 1007.80 1008.01 1008.38 1008.95 1009.70 1010.57 1011.44 1012.22 1012.81 1013.17 1013.33 1013.35 1013.31 1013.33 1013.47 1013.75 1014.14 1014.59 1015.02 1015.37 1015.58 1015.67 1015.65 1015.59 1015.54 1015.54 1015.61 1015.73 1015.87 1016.00
1007.83 1008.50 1009.12 1009.53 1009.63 1009.39 1008.83 1008.07 1007.23 1006.49 1005.96 1005.71 1005.73 1005.95 1006.28 1006.63 1006.91 1007.11 1007.26 1007.44 1007.73 1008.20 1008.87 1009.72 1010.67 1011.60 1012.40 1012.99 1013.34 1013.48 1013.48 1013.45 1013.46 1013.60 1013.86 1014.24 1014.66 1015.05 1015.35 1015.53 1015.59 1015.58 1015.54 1015.52 1015.57 1015.68 1015.84 1016.01 1016.13
1007.96 1008.60 1009.14 1009.43 1009.42 1009.07 1008.45 1007.66 1006.85 1006.16 1005.70 1005.50 1005.55 1005.79 1006.10 1006.42 1006.66 1006.83 1006.98 1007.18 1007.52 1008.04 1008.78 1009.69 1010.68 1011.63 1012.44 1013.03 1013.39 1013.54 1013.56 1013.54 1013.57 1013.72 1013.98 1014.32 1014.70 1015.04 1015.29 1015.43 1015.47 1015.46 1015.44 1015.48 1015.58 1015.75 1015.95 1016.14 1016.26
1008.10 1008.66 1009.08 1009.25 1009.11 1008.67 1008.00 1007.22 1006.46 1005.85 1005.48 1005.36 1005.47 1005.73 1006.05 1006.34 1006.55 1006.70 1006.84 1007.04 1007.39 1007.94 1008.69 1009.60 1010.59 1011.54 1012.34 1012.93 1013.30 1013.48 1013.54 1013.57 1013.65 1013.81 1014.08 1014.40 1014.74 1015.02 1015.22 1015.31 1015.34 1015.33 1015.34 1015.41 1015.57 1015.79 1016.03 1016.23 1016.35
1008.21 1008.66 1008.94 1008.97 1008.72 1008.21 1007.52 1006.77 1006.08 1005.58 1005.31 1005.29 1005.47 1005.77 1006.10 1006.38 1006.58 1006.71 1006.83 1007.03 1007.37 1007.90 1008.63 1009.51 1010.45 1011.36 1012.13 1012.72 1013.10 1013.32 1013.43 1013.52 1013.65 1013.86 1014.13 1014.45 1014.75 1014.98 1015.13 1015.19 1015.19 1015.18 1015.21 1015.32 1015.51 1015.76 1016.02 1016.24 1016.35
1008.28 1008.60 1008.74 1008.63 1008.28 1007.72 1007.04 1006.35 1005.75 1005.36 1005.20 1005.28 1005.53 1005.88 1006.22 1006.51 1006.71 1006.84 1006.96 1007.14 1007.45 1007.95 1008.63 1009.44 1010.31 1011.15 1011.87 1012.42 1012.81 1013.06 1013.23 1013.38 1013.57 1013.81 1014.11 1014.41 1014.69 1014.89 1015.00 1015.02 1015.00 1014.99 1015.03 1015.15 1015.36 1015.62 1015.89 1016.09 1016.19
1008.32 1008.50 1008.50 1008.28 1007.85 1007.27 1006.61 1005.98 1005.48 1005.19 1005.14 1005.29 1005.60 1005.99 1006.36 1006.66 1006.87 1007.02 1007.14 1007.32 1007.62 1008.07 1008.68 1009.41 1010.19 1010.93 1011.57 1012.08 1012.46 1012.72 1012.92 1013.12 1013.36 1013.64 1013.95 1014.26 1014.51 1014.69 1014.77 1014.77 1014.74 1014.72 1014.75 1014.87 1015.08 1015.33 1015.58 1015.77 1015.85
1008.33 1008.37 1008.25 1007.94 1007.46 1006.88 1006.26 1005.70 1005.29 1005.08 1005.10 1005.30 1005.65 1006.05 1006.44 1006.76 1007.00 1007.17 1007.32 1007.51 1007.80 1008.22 1008.77 1009.40 1010.07 1010.72 1011.27 1011.72 1012.05 1012.30 1012.52 1012.74 1013.00 1013.30 1013.63 1013.93 1014.18 1014.34 1014.41 1014.40 1014.36 1014.33 1014.36 1014.46 1014.65 1014.88 1015.11 1015.28 1015.35
1008.31 1008.24 1008.03 1007.65 1007.16 1006.59 1006.02 1005.53 1005.17 1005.02 1005.06 1005.28 1005.62 1006.01 1006.40 1006.74 1007.00 1007.21 1007.40 1007.63 1007.93 1008.32 1008.82 1009.37 1009.95 1010.49 1010.95 1011.32 1011.60 1011.82 1012.02 1012.24 1012.50 1012.80 1013.12 1013.42 1013.67 1013.83 1013.90 1013.90 1013.86 1013.82 1013.84 1013.93 1014.09 1014.30 1014.51 1014.66 1014.72
1008.28 1008.13 1007.85 1007.45 1006.96 1006.42 1005.89 1005.45 1005.13 1004.98 1005.01 1005.20 1005.50 1005.85 1006.22 1006.55 1006.84 1007.09 1007.33 1007.60 1007.92 1008.31 1008.77 1009.27 1009.77 1010.22 1010.60 1010.89 1011.11 1011.28 1011.44 1011.63 1011.86 1012.14 1012.45 1012.74 1012.99 1013.17 1013.26 1013.27 1013.25 1013.22 1013.23 1013.31 1013.45 1013.64 1013.83 1013.98 1014.05
1008.27 1008.06 1007.75 1007.34 1006.87 1006.36 1005.88 1005.46 1005.15 1004.98 1004.95 1005.07 1005.29 1005.58 1005.90 1006.22 1006.51 1006.80 1007.08 1007.39 1007.73 1008.13 1008.58 1009.04 1009.49 1009.88 1010.20 1010.44 1010.60 1010.72 1010.82 1010.96 1011.15 1011.39 1011.67 1011.95 1012.20 1012.40 1012.52 1012.57 1012.57 1012.57 1012.59 1012.66 1012.79 1012.96 1013.15 1013.30 1013.40
1008.28 1008.04 1007.71 1007.32 1006.88 1006.42 1005.97 1005.56 1005.23 1005.00 1004.90 1004.91 1005.03 1005.24 1005.49 1005.78 1006.07 1006.37 1006.68 1007.02 1007.39 1007.80 1008.24 1008.69 1009.11 1009.47 1009.76 1009.96 1010.08 1010.16 1010.22 1010.30 1010.43 1010.62 1010.86 1011.12 1011.38 1011.60 1011.76 1011.86 1011.91 1011.94 1011.97 1012.05 1012.17 1012.34 1012.52 1012.70 1012.82
1008.33 1008.08 1007.76 1007.40 1007.00 1006.57 1006.14 1005.73 1005.36 1005.07 1004.87 1004.79 1004.81 1004.92 1005.11 1005.35 1005.62 1005.92 1006.24 1006.58 1006.95 1007.36 1007.80 1008.24 1008.65 1009.02 1009.31 1009.50 1009.61 1009.66 1009.68 1009.71 1009.78 1009.92 1010.11 1010.36 1010.62 1010.86 1011.07 1011.22 1011.32 1011.39 1011.45 1011.53 1011.65 1011.81 1012.00 1012.19 1012.34
1008.44 1008.19 1007.89 1007.56 1007.20 1006.81 1006.39 1005.97 1005.56 1005.20 1004.93 1004.75 1004.69 1004.73 1004.86 1005.06 1005.31 1005.59 1005.88 1006.20 1006.55 1006.94 1007.35 1007.78 1008.20 1008.58 1008.89 1009.11 1009.23 1009.28 1009.27 1009.26 1009.28 1009.36 1009.51 1009.72 1009.98 1010.25 1010.50 1010.71 1010.86 1010.96 1011.04 1011.13 1011.24 1011.39 1011.58 1011.78 1011.95
1008.60 1008.36 1008.09 1007.79 1007.47 1007.11 1006.71 1006.27 1005.83 1005.42 1005.09 1004.86 1004.74 1004.75 1004.85 1005.03 1005.25 1005.50 1005.75 1006.02 1006.31 1006.64 1007.01 1007.41 1007.83 1008.22 1008.56 1008.82 1008.97 1009.03 1009.02 1008.98 1008.95 1008.98 1009.08 1009.26 1009.52 1009.81 1010.09 1010.34 1010.53 1010.67 1010.77 1010.85 1010.94 1011.07 1011.24 1011.44 1011.62
1008.81 1008.59 1008.36 1008.11 1007.82 1007.49 1007.09 1006.65 1006.18 1005.75 1005.39 1005.13 1005.01 1005.02 1005.13 1005.31 1005.52 1005.74 1005.94 1006.13 1006.33 1006.57 1006.86 1007.21 1007.60 1008.00 1008.36 1008.66 1008.85 1008.94 1008.93 1008.86 1008.79 1008.77 1008.82 1008.97 1009.21 1009.51 1009.82 1010.10 1010.33 1010.49 1010.60 1010.66 1010.73 1010.83 1010.97 1011.14 1011.32
1009.06 1008.88 1008.70 1008.50 1008.25 1007.94 1007.55 1007.10 1006.62 1006.17 1005.81 1005.57 1005.48 1005.53 1005.68 1005.90 1006.12 1006.31 1006.45 1006.55 1006.64 1006.76 1006.94 1007.21 1007.54 1007.93 1008.30 1008.62 1008.85 1008.96 1008.95 1008.87 1008.76 1008.69 1008.69 1008.80 1009.02 1009.31 1009.64 1009.96 1010.21 1010.39 1010.49 1010.54 1010.57 1010.62 1010.72 1010.85 1011.01
1009.35 1009.22 1009.11 1008.97 1008.77 1008.48 1008.09 1007.63 1007.13 1006.67 1006.32 1006.12 1006.08 1006.20 1006.42 1006.69 1006.94 1007.12 1007.21 1007.22 1007.19 1007.18 1007.23 1007.39 1007.65 1007.98 1008.35 1008.68 1008.92 1009.04 1009.04 1008.94 1008.79 1008.67 1008.62 1008.69 1008.88 1009.16 1009.50 1009.83 1010.10 1010.30 1010.40 1010.43 1010.42 1010.43 1010.47 1010.57 1010.70
1009.65 1009.61 1009.58 1009.51 1009.36 1009.09 1008.70 1008.22 1007.70 1007.22 1006.87 1006.70 1006.72 1006.91 1007.21 1007.55 1007.84 1008.02 1008.07 1008.01 1007.87 1007.73 1007.65 1007.68 1007.84 1008.11 1008.44 1008.76 1009.00 1009.12 1009.11 1008.99 1008.81 1008.64 1008.54 1008.56 1008.71 1008.98 1009.31 1009.66 1009.95 1010.16 1010.27 1010.28 1010.25 1010.22 1010.22 1010.28 1010.38
1009.94 1010.02 1010.10 1010.13 1010.03 1009.78 1009.38 1008.86 1008.29 1007.78 1007.40 1007.23 1007.28 1007.52 1007.89 1008.29 1008.62 1008.82 1008.86 1008.74 1008.51 1008.26 1008.06 1007.98 1008.04 1008.24 1008.52 1008.81 1009.04 1009.15 1009.12 1008.98 1008.76 1008.54 1008.39 1008.36 1008.47 1008.71 1009.04 1009.39 1009.71 1009.94 1010.06 1010.08 1010.04 1009.98 1009.96 1009.99 1010.08
1010.22 1010.44 1010.65 1010.78 1010.76 1010.53 1010.10 1009.53 1008.89 1008.30 1007.86 1007.65 1007.68 1007.92 1008.32 1008.76 1009.13 1009.36 1009.39 1009.24 1008.97 1008.64 1008.36 1008.19 1008.17 1008.30 1008.53 1008.78 1008.99 1009.09 1009.04 1008.87 1008.62 1008.35 1008.15 1008.07 1008.14 1008.35 1008.66 1009.01 1009.34 1009.59 1009.74 1009.79 1009.76 1009.71 1009.68 1009.69 1009.77
1010.48 1010.85 1011.21 1011.45 1011.50 1011.29 1010.84 1010.20 1009.47 1008.77 1008.22 1007.91 1007.87 1008.07 1008.45 1008.89 1009.28 1009.53 1009.58 1009.44 1009.16 1008.80 1008.48 1008.26 1008.19 1008.27 1008.46 1008.68 1008.86 1008.95 1008.89 1008.70 1008.42 1008.11 1007.86 1007.72 1007.73 1007.90 1008.18 1008.53 1008.86 1009.14 1009.32 1009.41 1009.41 1009.39 1009.37 1009.39 1009.48
1010.73 1011.25 1011.75 1012.10 1012.21 1012.03 1011.55 1010.84 1010.00 1009.17 1008.49 1008.04 1007.88 1007.98 1008.29 1008.70 1009.08 1009.34 1009.43 1009.32 1009.06 1008.73 1008.41 1008.18 1008.10 1008.16 1008.32 1008.53 1008.70 1008.78 1008.71 1008.51 1008.20 1007.86 1007.56 1007.37 1007.32 1007.43 1007.66 1007.98 1008.31 1008.61 1008.82 1008.95 1009.00 1009.01 1009.03 1009.07 1009.17
1010.96 1011.61 1012.23 1012.67 1012.85 1012.69 1012.19 1011.41 1010.47 1009.51 1008.67 1008.07 1007.75 1007.72 1007.93 1008.26 1008.62 1008.88 1009.00 1008.94 1008.75 1008.47 1008.20 1008.01 1007.94 1008.01 1008.18 1008.38 1008.55 1008.63 1008.57 1008.36 1008.04 1007.67 1007.33 1007.08 1006.96 1007.00 1007.17 1007.44 1007.75 1008.04 1008.28 1008.45 1008.55 1008.61 1008.66 1008.74 1008.86
1011.18 1011.92 1012.61 1013.11 1013.33 1013.19 1012.68 1011.86 1010.85 1009.78 1008.80 1008.05 1007.57 1007.40 1007.48 1007.72 1008.02 1008.29 1008.43 1008.44 1008.33 1008.14 1007.95 1007.82 1007.80 1007.90 1008.08 1008.29 1008.47 1008.55 1008.50 1008.30 1007.98 1007.60 1007.22 1006.92 1006.73 1006.68 1006.78 1006.98 1007.24 1007.51 1007.75 1007.95 1008.09 1008.20 1008.29 1008.40 1008.54
1011.38 1012.13 1012.84 1013.36 1013.59 1013.46 1012.96 1012.13 1011.08 1009.95 1008.88 1008.01 1007.41 1007.10 1007.05 1007.20 1007.45 1007.70 1007.88 1007.96 1007.93 1007.84 1007.74 1007.69 1007.73 1007.86 1008.06 1008.29 1008.48 1008.58 1008.55 1008.37 1008.06 1007.68 1007.28 1006.93 1006.67 1006.54 1006.55 1006.66 1006.86 1007.08 1007.31 1007.51 1007.69 1007.83 1007.97 1008.10 1008.26
1011.54 1012.23 1012.88 1013.36 1013.58 1013.45 1012.97 1012.16 1011.13 1010.00 1008.90 1007.97 1007.29 1006.88 1006.75 1006.81 1007.01 1007.25 1007.45 1007.58 1007.64 1007.64 1007.64 1007.66 1007.75 1007.92 1008.14 1008.38 1008.59 1008.70 1008.69 1008.54 1008.26 1007.90 1007.50 1007.12 1006.81 1006.61 1006.52 1006.55 1006.66 1006.83 1007.02 1007.22 1007.40 1007.57 1007.73 1007.89 1008.05
1011.61 1012.16 1012.69 1013.08 1013.24 1013.10 1012.65 1011.91 1010.95 1009.88 1008.84 1007.92 1007.22 1006.78 1006.58 1006.59 1006.75 1006.97 1007.19 1007.37 1007.49 1007.57 1007.64 1007.72 1007.86 1008.05 1008.28 1008.53 1008.74 1008.87 1008.90 1008.79 1008.55 1008.22 1007.85 1007.47 1007.13 1006.88 1006.72 1006.66 1006.70 1006.80 1006.94 1007.11 1007.28 1007.46 1007.64 1007.82 1007.99
1011.56 1011.92 1012.27 1012.52 1012.60 1012.45 1012.04 1011.38 1010.55 1009.61 1008.67 1007.84 1007.19 1006.75 1006.54 1006.52 1006.64 1006.85 1007.07 1007.28 1007.44 1007.58 1007.69 1007.82 1007.98 1008.18 1008.41 1008.66 1008.87 1009.03 1009.08 1009.03 1008.86 1008.59 1008.26 1007.92 1007.59 1007.31 1007.10 1006.98 1006.95 1006.98 1007.08 1007.21 1007.37 1007.55 1007.74 1007.92 1008.10
Thickness
5858 5862 5864 5860 5841 5828 5833 5860 5870 5867 5870 5880 5881 5876 5868 5856 5840 5828 5862 5874 5868 5855 5844 5836 5832 5828 5824 5821 5818 5815 5812 5809 5805 5802 5798 5795 5792 5789 5786 5783 5780 5778 5775 5773 5770 5768 5767 5765 5764
5864 5871 5867 5853 5827 5804 5832 5862 5861 5866 5877 5886 5882 5880 5873 5860 5867 5863 5868 5871 5866 5854 5844 5838 5831 5828 5824 5820 5817 5814 5812 5809 5805 5802 5798 5795 5792 5789 5786 5783 5780 5778 5775 5773 5771 5768 5766 5764 5763
5866 5872 5857 5850 5829 5813 5839 5865 5869 5878 5887 5885 5879 5879 5869 5859 5868 5870 5872 5873 5864 5853 5845 5836 5831 5827 5823 5819 5816 5813 5811 5808 5805 5802 5798 5795 5792 5789 5787 5784 5781 5778 5776 5773 5771 5768 5766 5764 5763
5868 5869 5860 5848 5842 5856 5867 5875 5882 5880 5883 5886 5883 5872 5868 5872 5877 5878 5878 5874 5863 5853 5845 5835 5830 5826 5822 5818 5815 5812 5810 5807 5804 5801 5799 5796 5793 5790 5787 5784 5781 5779 5776 5774 5771 5769 5767 5765 5763
5872 5857 5849 5845 5852 5872 5885 5889 5889 5876 5875 5881 5881 5866 5857 5874 5884 5882 5878 5873 5864 5856 5846 5835 5830 5825 5821 5817 5814 5811 5809 5806 5803 5801 5798 5796 5793 5791 5788 5784 5781 5779 5776 5774 5772 5770 5768 5766 5764
5857 5858 5842 5838 5851 5874 5885 5891 5891 5882 5880 5883 5881 5868 5856 5875 5877 5876 5877 5873 5869 5860 5846 5835 5829 5824 5820 5816 5813 5810 5807 5805 5802 5800 5797 5795 5792 5790 5787 5784 5781 5779 5776 5774 5773 5771 5769 5767 5765
5848 5845 5841 5849 5854 5867 5880 5893 5886 5879 5875 5878 5883 5868 5858 5869 5874 5878 5875 5873 5871 5863 5847 5835 5829 5823 5819 5815 5811 5808 5805 5803 5801 5799 5796 5794 5791 5789 5786 5783 5781 5779 5777 5775 5773 5772 5770 5769 5767
5862 5848 5844 5860 5860 5865 5882 5890 5891 5884 5876 5890 5888 5868 5854 5866 5875 5876 5871 5871 5868 5860 5848 5838 5831 5825 5819 5814 5810 5807 5805 5802 5800 5798 5795 5793 5791 5789 5786 5784 5782 5780 5777 5776 5774 5773 5772 5771 5769
5865 5838 5837 5858 5861 5868 5883 5882 5891 5896 5886 5884 5886 5881 5877 5877 5875 5868 5861 5862 5860 5856 5849 5842 5835 5828 5822 5818 5813 5808 5805 5802 5799 5797 5795 5793 5792 5790 5788 5786 5784 5781 5779 5778 5776 5775 5774 5773 5772
5854 5833 5850 5874 5876 5877 5881 5880 5886 5883 5879 5875 5878 5879 5881 5875 5868 5859 5853 5852 5851 5849 5847 5846 5839 5832 5827 5825 5819 5811 5807 5804 5801 5800 5797 5794 5793 5794 5794 5792 5788 5784 5782 5780 5778 5777 5776 5774 5774
5853 5843 5859 5874 5882 5880 5876 5881 5887 5877 5869 5871 5865 5863 5873 5869 5863 5857 5852 5853 5850 5849 5846 5845 5841 5835 5831 5828 5822 5816 5814 5810 5805 5802 5801 5797 5796 5795 5796 5795 5790 5786 5784 5781 5781 5779 5777 5777 5778
5849 5853 5862 5867 5875 5872 5870 5873 5874 5875 5877 5883 5880 5877 5873 5865 5861 5857 5852 5852 5850 5846 5845 5844 5841 5835 5832 5830 5827 5822 5819 5816 5812 5807 5803 5801 5797 5797 5798 5797 5794 5790 5787 5785 5785 5783 5782 5781 5781
5842 5846 5858 5867 5869 5868 5868 5867 5869 5873 5887 5888 5883 5878 5871 5867 5864 5861 5858 5853 5850 5844 5843 5842 5839 5833 5829 5827 5825 5823 5821 5820 5816 5813 5807 5803 5799 5796 5797 5796 5795 5792 5791 5789 5786 5786 5785 5782 5782
5840 5846 5852 5859 5862 5865 5859 5862 5865 5872 5884 5879 5874 5870 5870 5868 5864 5860 5855 5850 5847 5843 5841 5840 5836 5831 5826 5822 5819 5819 5819 5818 5815 5814 5810 5805 5801 5799 5797 5795 5792 5790 5789 5788 5787 5786 5784 5781 5781
5838 5830 5837 5851 5858 5859 5854 5843 5856 5874 5880 5869 5866 5866 5866 5864 5862 5857 5853 5849 5846 5843 5841 5837 5833 5829 5822 5817 5814 5813 5814 5813 5812 5810 5808 5805 5801 5798 5795 5791 5789 5788 5787 5786 5784 5782 5780 5778 5777
5828 5820 5818 5848 5859 5856 5836 5819 5853 5874 5870 5857 5855 5857 5856 5855 5856 5855 5852 5847 5844 5841 5837 5834 5831 5825 5819 5813 5810 5809 5809 5809 5809 5808 5805 5803 5799 5795 5792 5789 5787 5786 5784 5781 5778 5776 5773 5770 5769
5814 5808 5818 5844 5857 5846 5832 5821 5847 5864 5859 5848 5846 5846 5846 5844 5844 5846 5845 5841 5838 5835 5831 5827 5824 5820 5814 5808 5804 5801 5802 5802 5802 5802 5801 5799 5796 5793 5789 5785 5783 5781 5778 5775 5772 5770 5767 5763 5760
5804 5818 5828 5835 5849 5835 5817 5818 5840 5854 5846 5838 5837 5835 5833 5831 5829 5833 5834 5833 5830 5827 5824 5819 5815 5811 5807 5801 5797 5795 5794 5795 5795 5794 5794 5793 5791 5789 5785 5781 5778 5775 5772 5769 5766 5762 5760 5757 5752
5802 5803 5806 5821 5837 5817 5804 5806 5823 5840 5835 5828 5824 5821 5818 5816 5819 5818 5817 5817 5815 5812 5810 5809 5805 5800 5795 5790 5787 5784 5783 5785 5786 5787 5787 5786 5784 5781 5778 5774 5770 5767 5764 5761 5759 5754 5751 5748 5745
5795 5791 5796 5812 5824 5810 5799 5800 5816 5826 5825 5822 5815 5809 5806 5802 5800 5800 5798 5799 5797 5794 5794 5795 5791 5787 5785 5782 5780 5779 5777 5777 5778 5779 5780 5780 5777 5773 5769 5764 5761 5758 5755 5753 5750 5746 5742 5740 5736
5792 5791 5792 5792 5798 5800 5791 5788 5806 5821 5825 5818 5810 5803 5798 5791 5786 5784 5782 5781 5780 5779 5780 5780 5777 5775 5774 5773 5771 5770 5768 5768 5768 5768 5767 5769 5767 5764 5759 5755 5752 5750 5747 5745 5743 5740 5734 5729 5727
5776 5794 5787 5780 5771 5769 5779 5764 5794 5814 5812 5804 5795 5786 5781 5780 5778 5774 5772 5769 5769 5770 5771 5770 5767 5765 5764 5763 5760 5757 5754 5754 5758 5759 5758 5758 5756 5752 5750 5747 5745 5743 5740 5738 5735 5734 5728 5722 5717
5778 5787 5780 5775 5768 5763 5774 5767 5786 5809 5791 5780 5774 5771 5771 5771 5770 5766 5764 5762 5762 5762 5762 5761 5759 5756 5754 5753 5751 5748 5747 5748 5750 5750 5749 5748 5747 5745 5742 5739 5736 5734 5732 5730 5727 5725 5721 5716 5711
5783 5776 5775 5777 5770 5750 5762 5753 5764 5783 5778 5772 5769 5768 5766 5767 5765 5762 5760 5758 5756 5756 5754 5753 5750 5747 5745 5743 5741 5739 5737 5737 5737 5737 5737 5737 5737 5736 5733 5730 5728 5725 5724 5722 5719 5717 5713 5709 5705
5772 5754 5741 5744 5748 5744 5755 5747 5759 5783 5788 5780 5772 5768 5767 5765 5760 5756 5753 5750 5748 5747 5747 5745 5742 5739 5738 5736 5734 5732 5730 5728 5727 5727 5727 5726 5725 5724 5723 5721 5718 5717 5715 5713 5711 5708 5705 5702 5698
5763 5755 5732 5716 5724 5741 5761 5761 5780 5790 5787 5782 5775 5769 5765 5761 5758 5754 5750 5748 5745 5743 5740 5738 5735 5732 5730 5728 5725 5724 5722 5721 5720 5719 5717 5716 5714 5712 5712 5710 5708 5707 5706 5704 5702 5700 5698 5695 5693
5756 5755 5761 5739 5735 5733 5754 5773 5775 5774 5770 5767 5764 5762 5759 5756 5753 5749 5746 5743 5739 5735 5732 5729 5726 5724 5722 5719 5716 5714 5713 5711 5709 5707 5705 5703 5702 5700 5698 5697 5696 5696 5695 5694 5693 5691 5690 5689 5688
5768 5762 5751 5734 5714 5711 5733 5748 5745 5750 5754 5756 5755 5753 5753 5751 5747 5743 5738 5733 5730 5726 5723 5721 5718 5714 5712 5709 5706 5705 5701 5699 5697 5694 5691 5688 5686 5684 5682 5681 5681 5682 5682 5683 5683 5683 5683 5682 5681
5763 5756 5749 5738 5730 5710 5706 5728 5766 5760 5759 5753 5751 5751 5748 5745 5741 5735 5730 5725 5720 5716 5712 5709 5706 5704 5701 5698 5695 5691 5688 5686 5683 5679 5676 5672 5669 5666 5664 5664 5666 5668 5670 5671 5673 5674 5675 5674 5673
5768 5755 5744 5721 5717 5719 5710 5724 5770 5763 5759 5754 5748 5745 5742 5738 5735 5729 5723 5716 5709 5704 5700 5697 5695 5692 5690 5687 5683 5679 5675 5672 5667 5663 5659 5655 5651 5648 5648 5650 5651 5654 5657 5661 5663 5664 5665 5664 5663